Location: Castro Valley
(37.6940°N, 122.0850°W)
Time: 08:41:48
(UTC-07:00)

PANSAT - Visible Passes

Search period start: 24 May 2016 00:00
Search period end: 03 June 2016 00:00
Orbit: 479 x 486 km, 28.5° (Epoch: 23 May)

Date Brightness Start Highest point End Pass type
(mag) Time Alt. Az. Time Alt. Az. Time Alt. Az.
24 May 9.3 20:52:07 10° SW 20:54:42 18° S 20:57:18 10° SE visible
24 May 10.1 22:31:18 10° SW 22:31:38 12° SW 22:31:38 12° SW visible
25 May 9.3 22:02:27 10° SW 22:04:29 18° SSW 22:04:29 18° SSW visible
26 May 9.1 21:33:38 10° SW 21:36:22 19° S 21:37:15 18° SSE visible
27 May 9.3 21:04:47 10° SW 21:07:31 19° S 21:09:57 11° SE visible
29 May 9.9 21:48:28 10° SSW 21:49:04 10° SSW 21:49:27 10° SSW visible
30 May 10.0 21:19:51 10° SSW 21:20:13 10° SSW 21:20:34 10° SSW visible
